Time,TemperatureF,DewpointF,PressureIn,WindDirection,WindDirectionDegrees,WindSpeedMPH,WindSpeedGustMPH,Humidity,HourlyPrecipIn,Conditions,Clouds,dailyrainin,SoftwareType,DateUTC
2013-04-04 00:00:00,43.2,19.9,30.30,NNE,22,0.0,0.0,39,0.00,,,0.00,meteohub,2013-04-04 04:00:00,
2013-04-04 00:05:00,43.0,19.8,30.30,NNE,22,0.0,0.0,39,0.00,,,0.00,meteohub,2013-04-04 04:05:00,
2013-04-04 00:10:00,43.0,19.0,30.30,NNE,22,0.0,0.0,38,0.00,,,0.00,meteohub,2013-04-04 04:10:00,
2013-04-04 00:15:00,43.0,19.8,30.30,NNE,22,0.0,0.0,39,0.00,,,0.00,meteohub,2013-04-04 04:15:00,
2013-04-04 00:20:00,42.8,19.6,30.30,NNE,22,0.0,0.0,39,0.00,,,0.00,meteohub,2013-04-04 04:20:00,
2013-04-04 00:25:00,42.8,18.9,30.30,NNE,22,0.0,0.0,38,0.00,,,0.00,meteohub,2013-04-04 04:25:00,
2013-04-04 00:30:00,42.8,18.9,30.27,NNE,22,0.0,0.0,38,0.00,,,0.00,meteohub,2013-04-04 04:30:00,
2013-04-04 00:35:00,42.8,18.9,30.27,NNE,22,0.0,0.0,38,0.00,,,0.00,meteohub,2013-04-04 04:35:00,
2013-04-04 00:40:00,42.8,18.9,30.27,NNE,22,0.0,0.0,38,0.00,,,0.00,meteohub,2013-04-04 04:40:00,
2013-04-04 00:45:00,42.8,19.6,30.27,NNE,22,0.0,0.0,39,0.00,,,0.00,meteohub,2013-04-04 04:45:00,
2013-04-04 00:50:00,42.8,18.9,30.27,NNE,22,0.0,0.0,38,0.00,,,0.00,meteohub,2013-04-04 04:50:00,
2013-04-04 00:55:00,43.2,19.2,30.27,NNE,22,0.0,0.0,38,0.00,,,0.00,meteohub,2013-04-04 04:55:00,
2013-04-04 01:00:00,43.0,19.0,30.27,NNE,22,0.0,0.0,38,0.00,,,0.00,meteohub,2013-04-04 05:00:00,
2013-04-04 01:05:00,43.0,19.0,30.27,SW,225,2.0,6.0,38,0.00,,,0.00,meteohub,2013-04-04 05:05:00,
2013-04-04 01:10:00,43.7,16.5,30.30,ESE,112,4.0,11.0,33,0.00,,,0.00,meteohub,2013-04-04 05:10:00,
2013-04-04 01:15:00,43.7,16.5,30.30,South,180,4.0,11.0,33,0.00,,,0.00,meteohub,2013-04-04 05:15:00,
2013-04-04 01:20:00,43.7,16.5,30.30,SSW,202,5.0,11.0,33,0.00,,,0.00,meteohub,2013-04-04 05:20:00,
2013-04-04 01:25:00,43.5,15.6,30.30,WSW,248,3.0,8.0,32,0.00,,,0.00,meteohub,2013-04-04 05:25:00,
2013-04-04 01:30:00,43.5,15.6,30.30,WSW,248,3.0,8.0,32,0.00,,,0.00,meteohub,2013-04-04 05:30:00,
2013-04-04 01:35:00,43.3,15.4,30.30,WSW,248,4.0,8.0,32,0.00,,,0.00,meteohub,2013-04-04 05:35:00,
2013-04-04 01:40:00,43.3,15.4,30.30,WSW,248,4.0,8.0,32,0.00,,,0.00,meteohub,2013-04-04 05:40:00,
2013-04-04 01:45:00,43.2,14.5,30.30,SSE,158,4.0,8.0,31,0.00,,,0.00,meteohub,2013-04-04 05:45:00,
2013-04-04 01:50:00,43.2,14.5,30.30,SSE,158,0.0,8.0,31,0.00,,,0.00,meteohub,2013-04-04 05:50:00,
2013-04-04 01:55:00,43.2,14.5,30.30,South,180,6.0,6.0,31,0.00,,,0.00,meteohub,2013-04-04 05:55:00,
2013-04-04 02:00:00,43.2,14.5,30.30,SSW,202,3.0,8.0,31,0.00,,,0.00,meteohub,2013-04-04 06:00:00,
2013-04-04 02:05:00,43.2,13.8,30.30,South,180,0.0,8.0,30,0.00,,,0.00,meteohub,2013-04-04 06:05:00,
2013-04-04 02:11:00,43.0,13.6,30.30,SSW,202,5.0,6.0,30,0.00,,,0.00,meteohub,2013-04-04 06:11:00,
2013-04-04 02:16:00,43.0,13.6,30.30,South,180,5.0,6.0,30,0.00,,,0.00,meteohub,2013-04-04 06:16:00,
2013-04-04 02:21:00,43.0,13.6,30.30,SSE,158,5.0,6.0,30,0.00,,,0.00,meteohub,2013-04-04 06:21:00,
2013-04-04 02:26:00,43.0,13.6,30.30,South,180,4.0,6.0,30,0.00,,,0.00,meteohub,2013-04-04 06:26:00,
2013-04-04 02:31:00,42.8,13.5,30.30,South,180,5.0,6.0,30,0.00,,,0.00,meteohub,2013-04-04 06:31:00,
2013-04-04 02:36:00,42.8,13.5,30.30,SSE,158,3.0,8.0,30,0.00,,,0.00,meteohub,2013-04-04 06:36:00,
2013-04-04 02:41:00,42.8,14.2,30.30,SSE,158,4.0,8.0,31,0.00,,,0.00,meteohub,2013-04-04 06:41:00,
2013-04-04 02:46:00,42.8,13.5,30.30,SW,225,3.0,8.0,30,0.00,,,0.00,meteohub,2013-04-04 06:46:00,
2013-04-04 02:51:00,42.4,14.0,30.30,SSE,158,4.0,8.0,31,0.00,,,0.00,meteohub,2013-04-04 06:51:00,
2013-04-04 02:56:00,42.4,14.7,30.27,SSW,202,3.0,8.0,32,0.00,,,0.00,meteohub,2013-04-04 06:56:00,
2013-04-04 03:02:00,42.3,14.5,30.27,WSW,248,0.0,8.0,32,0.00,,,0.00,meteohub,2013-04-04 07:02:00,
2013-04-04 03:07:00,42.1,14.4,30.27,SSE,158,4.0,8.0,32,0.00,,,0.00,meteohub,2013-04-04 07:07:00,
2013-04-04 03:12:00,41.9,15.6,30.30,West,270,4.0,6.0,34,0.00,,,0.00,meteohub,2013-04-04 07:12:00,
2013-04-04 03:17:00,41.9,16.2,30.30,SSE,158,0.0,8.0,35,0.00,,,0.00,meteohub,2013-04-04 07:17:00,
2013-04-04 03:22:00,41.9,17.6,30.30,WSW,248,6.0,8.0,37,0.00,,,0.00,meteohub,2013-04-04 07:22:00,
2013-04-04 03:27:00,41.9,18.7,30.30,SSE,158,0.0,10.0,39,0.00,,,0.00,meteohub,2013-04-04 07:27:00,
2013-04-04 03:32:00,41.9,18.7,30.30,South,180,0.0,10.0,39,0.00,,,0.00,meteohub,2013-04-04 07:32:00,
2013-04-04 03:37:00,41.7,19.2,30.30,WSW,248,3.0,10.0,40,0.00,,,0.00,meteohub,2013-04-04 07:37:00,
2013-04-04 03:42:00,41.7,19.2,30.30,SSE,158,0.0,6.0,40,0.00,,,0.00,meteohub,2013-04-04 07:42:00,
2013-04-04 03:47:00,41.7,19.8,30.30,WSW,248,6.0,6.0,41,0.00,,,0.00,meteohub,2013-04-04 07:47:00,
2013-04-04 03:52:00,41.7,20.3,30.30,West,270,0.0,9.0,42,0.00,,,0.00,meteohub,2013-04-04 07:52:00,
2013-04-04 03:57:00,41.5,20.7,30.30,SSW,202,4.0,9.0,43,0.00,,,0.00,meteohub,2013-04-04 07:57:00,
2013-04-04 04:02:00,41.5,20.7,30.30,SW,225,3.0,7.0,43,0.00,,,0.00,meteohub,2013-04-04 08:02:00,
2013-04-04 04:07:00,41.5,20.7,30.30,WNW,292,5.0,7.0,43,0.00,,,0.00,meteohub,2013-04-04 08:07:00,
2013-04-04 04:12:00,41.4,20.5,30.30,SW,225,4.0,7.0,43,0.00,,,0.00,meteohub,2013-04-04 08:12:00,
2013-04-04 04:17:00,41.2,20.3,30.30,SSW,202,4.0,6.0,43,0.00,,,0.00,meteohub,2013-04-04 08:17:00,
2013-04-04 04:22:00,41.2,20.3,30.30,South,180,3.0,6.0,43,0.00,,,0.00,meteohub,2013-04-04 08:22:00,
2013-04-04 04:27:00,41.2,20.8,30.30,WSW,248,0.0,6.0,44,0.00,,,0.00,meteohub,2013-04-04 08:27:00,
2013-04-04 04:32:00,41.0,20.8,30.30,SSW,202,4.0,6.0,44,0.00,,,0.00,meteohub,2013-04-04 08:32:00,
2013-04-04 04:37:00,41.0,20.8,30.30,WSW,248,3.0,6.0,44,0.00,,,0.00,meteohub,2013-04-04 08:37:00,
2013-04-04 04:42:00,41.0,20.8,30.30,South,180,0.0,7.0,44,0.00,,,0.00,meteohub,2013-04-04 08:42:00,
2013-04-04 04:48:00,41.0,20.8,30.30,WSW,248,5.0,7.0,44,0.00,,,0.00,meteohub,2013-04-04 08:48:00,
2013-04-04 04:53:00,41.0,20.8,30.30,WSW,248,0.0,7.0,44,0.00,,,0.00,meteohub,2013-04-04 08:53:00,
2013-04-04 04:58:00,41.0,20.3,30.30,WSW,248,2.0,6.0,43,0.00,,,0.00,meteohub,2013-04-04 08:58:00,
2013-04-04 05:03:00,40.8,20.7,30.30,WSW,248,0.0,6.0,44,0.00,,,0.00,meteohub,2013-04-04 09:03:00,
2013-04-04 05:08:00,40.8,20.1,30.30,SSE,158,2.0,6.0,43,0.00,,,0.00,meteohub,2013-04-04 09:08:00,
2013-04-04 05:13:00,40.6,19.9,30.30,WSW,248,4.0,6.0,43,0.00,,,0.00,meteohub,2013-04-04 09:13:00,
2013-04-04 05:18:00,40.5,19.8,30.30,South,180,0.0,6.0,43,0.00,,,0.00,meteohub,2013-04-04 09:18:00,
2013-04-04 05:23:00,40.5,19.8,30.30,SSE,158,0.0,7.0,43,0.00,,,0.00,meteohub,2013-04-04 09:23:00,
2013-04-04 05:28:00,40.3,19.6,30.30,WSW,248,0.0,7.0,43,0.00,,,0.00,meteohub,2013-04-04 09:28:00,
2013-04-04 05:33:00,40.1,19.4,30.30,WSW,248,3.0,7.0,43,0.00,,,0.00,meteohub,2013-04-04 09:33:00,
2013-04-04 05:38:00,39.9,19.2,30.30,SSE,158,0.0,8.0,43,0.00,,,0.00,meteohub,2013-04-04 09:38:00,
2013-04-04 05:43:00,39.9,19.2,30.30,WSW,248,4.0,8.0,43,0.00,,,0.00,meteohub,2013-04-04 09:43:00,
2013-04-04 05:48:00,39.7,19.0,30.30,South,180,8.0,8.0,43,0.00,,,0.00,meteohub,2013-04-04 09:48:00,
2013-04-04 05:53:00,39.6,18.9,30.30,WSW,248,0.0,5.0,43,0.00,,,0.00,meteohub,2013-04-04 09:53:00,
2013-04-04 05:58:00,39.4,18.7,30.33,West,270,0.0,8.0,43,0.00,,,0.00,meteohub,2013-04-04 09:58:00,
2013-04-04 06:03:00,39.2,18.5,30.33,SSE,158,3.0,8.0,43,0.00,,,0.00,meteohub,2013-04-04 10:03:00,
2013-04-04 06:08:00,39.0,18.5,30.33,SSW,202,0.0,3.0,43,0.00,,,0.00,meteohub,2013-04-04 10:08:00,
2013-04-04 06:13:00,38.8,18.9,30.33,WSW,248,0.0,6.0,44,0.00,,,0.00,meteohub,2013-04-04 10:13:00,
2013-04-04 06:18:00,38.8,18.9,30.33,WSW,248,0.0,6.0,44,0.00,,,0.00,meteohub,2013-04-04 10:18:00,
2013-04-04 06:23:00,38.7,18.1,30.33,WSW,248,0.0,7.0,43,0.00,,,0.00,meteohub,2013-04-04 10:23:00,
2013-04-04 06:28:00,38.5,18.5,30.33,SE,135,0.0,7.0,44,0.00,,,0.00,meteohub,2013-04-04 10:28:00,
2013-04-04 06:33:00,38.5,18.5,30.33,SW,225,4.0,7.0,44,0.00,,,0.00,meteohub,2013-04-04 10:33:00,
2013-04-04 06:38:00,38.5,18.5,30.33,SSW,202,0.0,6.0,44,0.00,,,0.00,meteohub,2013-04-04 10:38:00,
2013-04-04 06:43:00,38.5,18.5,30.33,SW,225,0.0,5.0,44,0.00,,,0.00,meteohub,2013-04-04 10:43:00,
2013-04-04 06:48:00,38.5,18.5,30.33,South,180,0.0,5.0,44,0.00,,,0.00,meteohub,2013-04-04 10:48:00,
2013-04-04 06:53:00,38.3,18.3,30.33,SSE,158,8.0,8.0,44,0.00,,,0.00,meteohub,2013-04-04 10:53:00,
2013-04-04 06:58:00,38.3,18.3,30.33,South,180,0.0,10.0,44,0.00,,,0.00,meteohub,2013-04-04 10:58:00,
2013-04-04 07:03:00,38.1,18.1,30.33,South,180,7.0,10.0,44,0.00,,,0.00,meteohub,2013-04-04 11:03:00,
2013-04-04 07:08:00,38.1,17.6,30.33,SW,225,3.0,10.0,43,0.00,,,0.00,meteohub,2013-04-04 11:08:00,
2013-04-04 07:09:00,38.1,17.6,30.33,WSW,248,0.0,10.0,43,0.00,,,0.00,meteohub,2013-04-04 11:09:00,
2013-04-04 07:17:00,38.1,18.1,30.33,WSW,248,3.0,7.0,44,0.00,,,0.00,meteohub,2013-04-04 11:17:00,
2013-04-04 07:22:00,38.1,18.1,30.33,WSW,248,4.0,6.0,44,0.00,,,0.00,meteohub,2013-04-04 11:22:00,
2013-04-04 07:27:00,38.1,18.1,30.33,SSE,158,0.0,6.0,44,0.00,,,0.00,meteohub,2013-04-04 11:27:00,
2013-04-04 07:32:00,38.1,17.6,30.33,SW,225,0.0,6.0,43,0.00,,,0.00,meteohub,2013-04-04 11:32:00,
2013-04-04 07:37:00,38.3,17.2,30.33,SSE,158,4.0,6.0,42,0.00,,,0.00,meteohub,2013-04-04 11:37:00,
2013-04-04 07:42:00,38.5,17.4,30.36,SW,225,0.0,8.0,42,0.00,,,0.00,meteohub,2013-04-04 11:42:00,
2013-04-04 07:47:00,38.5,18.0,30.36,South,180,4.0,8.0,43,0.00,,,0.00,meteohub,2013-04-04 11:47:00,
2013-04-04 07:52:00,38.5,17.4,30.36,WSW,248,3.0,8.0,42,0.00,,,0.00,meteohub,2013-04-04 11:52:00,
2013-04-04 07:57:00,38.8,17.8,30.33,WSW,248,3.0,6.0,42,0.00,,,0.00,meteohub,2013-04-04 11:57:00,
2013-04-04 08:02:00,38.8,17.1,30.33,WSW,248,0.0,6.0,41,0.00,,,0.00,meteohub,2013-04-04 12:02:00,
2013-04-04 08:07:00,39.0,17.2,30.33,WSW,248,0.0,8.0,41,0.00,,,0.00,meteohub,2013-04-04 12:07:00,
2013-04-04 08:12:00,39.7,17.4,30.36,WSW,248,3.0,8.0,40,0.00,,,0.00,meteohub,2013-04-04 12:12:00,
2013-04-04 08:17:00,39.7,17.4,30.36,WSW,248,3.0,6.0,40,0.00,,,0.00,meteohub,2013-04-04 12:17:00,
2013-04-04 08:22:00,39.9,17.6,30.36,WSW,248,5.0,6.0,40,0.00,,,0.00,meteohub,2013-04-04 12:22:00,
2013-04-04 08:27:00,39.9,16.9,30.36,WSW,248,5.0,8.0,39,0.00,,,0.00,meteohub,2013-04-04 12:27:00,
2013-04-04 08:32:00,39.9,16.9,30.36,WSW,248,3.0,8.0,39,0.00,,,0.00,meteohub,2013-04-04 12:32:00,
2013-04-04 08:37:00,40.1,17.1,30.36,WSW,248,3.0,8.0,39,0.00,,,0.00,meteohub,2013-04-04 12:37:00,
2013-04-04 08:43:00,40.3,17.2,30.36,WSW,248,0.0,8.0,39,0.00,,,0.00,meteohub,2013-04-04 12:43:00,
2013-04-04 08:48:00,40.5,17.4,30.36,WSW,248,5.0,8.0,39,0.00,,,0.00,meteohub,2013-04-04 12:48:00,
2013-04-04 08:53:00,41.0,17.4,30.36,WSW,248,0.0,8.0,38,0.00,,,0.00,meteohub,2013-04-04 12:53:00,
2013-04-04 08:58:00,41.2,17.4,30.36,WSW,248,0.0,6.0,38,0.00,,,0.00,meteohub,2013-04-04 12:58:00,
2013-04-04 09:03:00,41.7,18.0,30.36,WSW,248,6.0,6.0,38,0.00,,,0.00,meteohub,2013-04-04 13:03:00,
2013-04-04 09:08:00,41.9,18.1,30.36,South,180,0.0,6.0,38,0.00,,,0.00,meteohub,2013-04-04 13:08:00,
2013-04-04 09:13:00,42.3,18.5,30.36,SW,225,3.0,6.0,38,0.00,,,0.00,meteohub,2013-04-04 13:13:00,
2013-04-04 09:19:00,43.2,19.2,30.36,WSW,248,4.0,8.0,38,0.00,,,0.00,meteohub,2013-04-04 13:19:00,
2013-04-04 09:24:00,43.3,18.9,30.36,WSW,248,5.0,8.0,37,0.00,,,0.00,meteohub,2013-04-04 13:24:00,
2013-04-04 09:29:00,43.7,17.8,30.33,SSE,158,3.0,8.0,35,0.00,,,0.00,meteohub,2013-04-04 13:29:00,
2013-04-04 09:34:00,43.3,17.6,30.33,SSE,158,0.0,8.0,35,0.00,,,0.00,meteohub,2013-04-04 13:34:00,
2013-04-04 09:39:00,43.5,17.1,30.33,WSW,248,3.0,8.0,34,0.00,,,0.00,meteohub,2013-04-04 13:39:00,
2013-04-04 09:44:00,43.5,17.1,30.33,South,180,0.0,7.0,34,0.00,,,0.00,meteohub,2013-04-04 13:44:00,
2013-04-04 09:49:00,43.5,17.1,30.33,West,270,6.0,8.0,34,0.00,,,0.00,meteohub,2013-04-04 13:49:00,
2013-04-04 09:54:00,44.4,17.8,30.33,WSW,248,0.0,11.0,34,0.00,,,0.00,meteohub,2013-04-04 13:54:00,
2013-04-04 09:59:00,45.3,18.0,30.33,SSE,158,6.0,11.0,33,0.00,,,0.00,meteohub,2013-04-04 13:59:00,
2013-04-04 10:05:00,45.0,17.6,30.33,WSW,248,7.0,11.0,33,0.00,,,0.00,meteohub,2013-04-04 14:05:00,
2013-04-04 10:10:00,44.2,16.9,30.33,SSE,158,7.0,9.0,33,0.00,,,0.00,meteohub,2013-04-04 14:10:00,
2013-04-04 10:16:00,44.6,18.0,30.33,SSE,158,4.0,9.0,34,0.00,,,0.00,meteohub,2013-04-04 14:16:00,
2013-04-04 10:21:00,44.6,18.0,30.33,West,270,8.0,9.0,34,0.00,,,0.00,meteohub,2013-04-04 14:21:00,
2013-04-04 10:26:00,44.1,17.4,30.33,WSW,248,9.0,12.0,34,0.00,,,0.00,meteohub,2013-04-04 14:26:00,
2013-04-04 10:31:00,44.4,18.5,30.33,WSW,248,6.0,12.0,35,0.00,,,0.00,meteohub,2013-04-04 14:31:00,
2013-04-04 10:36:00,45.0,18.3,30.33,SW,225,0.0,12.0,34,0.00,,,0.00,meteohub,2013-04-04 14:36:00,
2013-04-04 10:41:00,45.5,18.7,30.33,SW,225,5.0,9.0,34,0.00,,,0.00,meteohub,2013-04-04 14:41:00,
2013-04-04 10:46:00,46.2,19.4,30.33,WSW,248,6.0,8.0,34,0.00,,,0.00,meteohub,2013-04-04 14:46:00,
2013-04-04 10:51:00,45.5,18.1,30.33,WSW,248,8.0,11.0,33,0.00,,,0.00,meteohub,2013-04-04 14:51:00,
2013-04-04 10:56:00,46.0,19.2,30.33,SW,225,4.0,11.0,34,0.00,,,0.00,meteohub,2013-04-04 14:56:00,
2013-04-04 11:01:00,46.2,19.4,30.33,West,270,7.0,11.0,34,0.00,,,0.00,meteohub,2013-04-04 15:01:00,
2013-04-04 11:06:00,46.2,18.7,30.33,SW,225,7.0,10.0,33,0.00,,,0.00,meteohub,2013-04-04 15:06:00,
2013-04-04 11:11:00,46.2,18.7,30.30,WSW,248,7.0,10.0,33,0.00,,,0.00,meteohub,2013-04-04 15:11:00,
2013-04-04 11:16:00,46.4,18.9,30.30,West,270,4.0,9.0,33,0.00,,,0.00,meteohub,2013-04-04 15:16:00,
2013-04-04 11:22:00,46.6,19.8,30.30,WSW,248,6.0,9.0,34,0.00,,,0.00,meteohub,2013-04-04 15:22:00,
2013-04-04 11:27:00,46.8,19.9,30.30,West,270,5.0,9.0,34,0.00,,,0.00,meteohub,2013-04-04 15:27:00,
2013-04-04 11:32:00,47.5,20.5,30.30,SSW,202,0.0,8.0,34,0.00,,,0.00,meteohub,2013-04-04 15:32:00,
2013-04-04 11:37:00,47.3,19.6,30.30,SW,225,8.0,8.0,33,0.00,,,0.00,meteohub,2013-04-04 15:37:00,
2013-04-04 11:42:00,47.3,20.3,30.30,WSW,248,0.0,8.0,34,0.00,,,0.00,meteohub,2013-04-04 15:42:00,
2013-04-04 11:50:00,46.9,19.4,30.30,SW,225,6.0,8.0,33,0.00,,,0.00,meteohub,2013-04-04 15:50:00,
2013-04-04 11:55:00,46.4,19.6,30.30,WSW,248,5.0,8.0,34,0.00,,,0.00,meteohub,2013-04-04 15:55:00,
2013-04-04 12:00:00,46.4,18.9,30.30,WSW,248,4.0,8.0,33,0.00,,,0.00,meteohub,2013-04-04 16:00:00,
2013-04-04 12:05:00,46.4,19.6,30.30,WSW,248,0.0,6.0,34,0.00,,,0.00,meteohub,2013-04-04 16:05:00,
2013-04-04 12:11:00,46.4,19.6,30.30,WSW,248,0.0,6.0,34,0.00,,,0.00,meteohub,2013-04-04 16:11:00,
2013-04-04 12:16:00,46.8,21.2,30.30,South,180,4.0,7.0,36,0.00,,,0.00,meteohub,2013-04-04 16:16:00,
2013-04-04 12:21:00,47.1,22.1,30.30,SSW,202,0.0,7.0,37,0.00,,,0.00,meteohub,2013-04-04 16:21:00,
2013-04-04 12:26:00,47.3,22.3,30.27,WSW,248,5.0,7.0,37,0.00,,,0.00,meteohub,2013-04-04 16:26:00,
2013-04-04 12:31:00,47.7,22.6,30.27,WSW,248,0.0,7.0,37,0.00,,,0.00,meteohub,2013-04-04 16:31:00,
2013-04-04 12:36:00,48.0,23.0,30.27,WNW,292,0.0,7.0,37,0.00,,,0.00,meteohub,2013-04-04 16:36:00,
2013-04-04 12:41:00,48.7,23.0,30.27,WSW,248,5.0,7.0,36,0.00,,,0.00,meteohub,2013-04-04 16:41:00,
2013-04-04 12:46:00,48.9,22.5,30.27,WSW,248,6.0,8.0,35,0.00,,,0.00,meteohub,2013-04-04 16:46:00,
2013-04-04 12:52:00,48.6,20.8,30.27,SSW,202,4.0,8.0,33,0.00,,,0.00,meteohub,2013-04-04 16:52:00,
2013-04-04 12:57:00,48.4,20.7,30.27,WSW,248,6.0,10.0,33,0.00,,,0.00,meteohub,2013-04-04 16:57:00,
2013-04-04 13:02:00,48.9,21.7,30.27,SSE,158,8.0,10.0,34,0.00,,,0.00,meteohub,2013-04-04 17:02:00,
2013-04-04 13:07:00,49.5,23.5,30.27,WSW,248,4.0,9.0,36,0.00,,,0.00,meteohub,2013-04-04 17:07:00,
2013-04-04 13:12:00,50.0,24.1,30.25,SSW,202,4.0,9.0,36,0.00,,,0.00,meteohub,2013-04-04 17:12:00,
2013-04-04 13:18:00,50.4,23.0,30.25,SW,225,3.0,9.0,34,0.00,,,0.00,meteohub,2013-04-04 17:18:00,
2013-04-04 13:23:00,50.2,22.8,30.25,SSE,158,3.0,8.0,34,0.00,,,0.00,meteohub,2013-04-04 17:23:00,
2013-04-04 13:28:00,49.6,22.5,30.25,SW,225,4.0,8.0,34,0.00,,,0.00,meteohub,2013-04-04 17:28:00,
2013-04-04 13:33:00,49.3,21.4,30.25,WSW,248,3.0,7.0,33,0.00,,,0.00,meteohub,2013-04-04 17:33:00,
2013-04-04 13:38:00,48.7,20.1,30.25,WSW,248,2.0,6.0,32,0.00,,,0.00,meteohub,2013-04-04 17:38:00,
2013-04-04 13:43:00,48.2,21.7,30.22,SW,225,7.0,8.0,35,0.00,,,0.00,meteohub,2013-04-04 17:43:00,
2013-04-04 13:48:00,48.0,22.3,30.22,WSW,248,0.0,8.0,36,0.00,,,0.00,meteohub,2013-04-04 17:48:00,
2013-04-04 13:53:00,47.7,22.6,30.22,WSW,248,5.0,8.0,37,0.00,,,0.00,meteohub,2013-04-04 17:53:00,
2013-04-04 13:58:00,47.5,23.2,30.22,West,270,4.0,7.0,38,0.00,,,0.00,meteohub,2013-04-04 17:58:00,
2013-04-04 14:03:00,47.3,23.0,30.22,SW,225,0.0,8.0,38,0.00,,,0.00,meteohub,2013-04-04 18:03:00,
2013-04-04 14:08:00,47.1,22.8,30.22,WSW,248,0.0,8.0,38,0.00,,,0.00,meteohub,2013-04-04 18:08:00,
2013-04-04 14:13:00,47.1,23.4,30.22,WSW,248,4.0,7.0,39,0.00,,,0.00,meteohub,2013-04-04 18:13:00,
2013-04-04 14:18:00,46.6,24.1,30.22,WSW,248,2.0,7.0,41,0.00,,,0.00,meteohub,2013-04-04 18:18:00,
2013-04-04 14:23:00,46.2,25.5,30.22,WSW,248,0.0,7.0,44,0.00,,,0.00,meteohub,2013-04-04 18:23:00,
2013-04-04 14:28:00,46.0,28.4,30.22,SSE,158,0.0,6.0,50,0.00,,,0.00,meteohub,2013-04-04 18:28:00,
2013-04-04 14:33:00,45.7,29.5,30.22,SSE,158,0.0,4.0,53,0.00,,,0.00,meteohub,2013-04-04 18:33:00,
2013-04-04 14:38:00,45.1,29.5,30.22,WSW,248,0.0,3.0,54,0.00,,,0.00,meteohub,2013-04-04 18:38:00,
2013-04-04 14:43:00,44.8,30.6,30.22,SSE,158,0.0,3.0,57,0.00,,,0.00,meteohub,2013-04-04 18:43:00,
2013-04-04 14:48:00,44.6,32.0,30.22,South,180,0.0,0.0,61,0.00,,,0.00,meteohub,2013-04-04 18:48:00,
2013-04-04 14:53:00,44.2,33.3,30.22,SSE,158,0.0,0.0,65,0.00,,,0.00,meteohub,2013-04-04 18:53:00,
2013-04-04 14:58:00,43.9,34.0,30.22,SSE,158,0.0,0.0,68,0.00,,,0.00,meteohub,2013-04-04 18:58:00,
2013-04-04 15:03:00,43.5,34.3,30.22,SSE,158,0.0,0.0,70,0.00,,,0.00,meteohub,2013-04-04 19:03:00,
2013-04-04 15:08:00,43.3,34.2,30.22,SSE,158,0.0,0.0,70,0.04,,,0.04,meteohub,2013-04-04 19:08:00,
2013-04-04 15:13:00,43.3,34.5,30.22,SSE,158,0.0,0.0,71,0.04,,,0.04,meteohub,2013-04-04 19:13:00,
2013-04-04 15:18:00,43.3,34.9,30.22,SSE,158,0.0,0.0,72,0.04,,,0.04,meteohub,2013-04-04 19:18:00,
2013-04-04 15:24:00,43.2,35.1,30.22,SSE,158,0.0,0.0,73,0.04,,,0.04,meteohub,2013-04-04 19:24:00,
2013-04-04 15:29:00,43.0,35.2,30.19,SSE,158,0.0,0.0,74,0.04,,,0.04,meteohub,2013-04-04 19:29:00,
2013-04-04 15:34:00,43.0,35.6,30.19,SSE,158,0.0,0.0,75,0.04,,,0.04,meteohub,2013-04-04 19:34:00,
2013-04-04 15:39:00,42.8,35.4,30.19,SE,135,0.0,3.0,75,0.04,,,0.04,meteohub,2013-04-04 19:39:00,
2013-04-04 15:44:00,42.4,35.8,30.19,SSW,202,0.0,3.0,77,0.04,,,0.04,meteohub,2013-04-04 19:44:00,
2013-04-04 15:50:00,42.3,35.6,30.19,SSE,158,0.0,3.0,77,0.04,,,0.04,meteohub,2013-04-04 19:50:00,
2013-04-04 15:55:00,42.1,35.8,30.19,SSE,158,0.0,5.0,78,0.08,,,0.08,meteohub,2013-04-04 19:55:00,
2013-04-04 16:00:00,41.7,35.8,30.16,South,180,0.0,6.0,79,0.08,,,0.08,meteohub,2013-04-04 20:00:00,
2013-04-04 16:05:00,41.7,36.3,30.16,SW,225,0.0,6.0,81,0.04,,,0.12,meteohub,2013-04-04 20:05:00,
2013-04-04 16:10:00,41.5,36.1,30.16,SSE,158,0.0,6.0,81,0.08,,,0.12,meteohub,2013-04-04 20:10:00,
2013-04-04 16:15:00,41.5,36.5,30.19,SE,135,0.0,5.0,82,0.08,,,0.12,meteohub,2013-04-04 20:15:00,
2013-04-04 16:20:00,41.4,36.3,30.19,SSE,158,3.0,5.0,82,0.08,,,0.12,meteohub,2013-04-04 20:20:00,
2013-04-04 16:27:00,41.4,36.5,30.19,South,180,0.0,5.0,83,0.08,,,0.12,meteohub,2013-04-04 20:27:00,
2013-04-04 16:32:00,41.4,36.9,30.19,SSE,158,4.0,6.0,84,0.13,,,0.17,meteohub,2013-04-04 20:32:00,
2013-04-04 16:37:00,41.2,36.7,30.19,NNW,338,3.0,6.0,84,0.13,,,0.17,meteohub,2013-04-04 20:37:00,
2013-04-04 16:42:00,41.4,37.2,30.16,SSE,158,3.0,6.0,85,0.13,,,0.17,meteohub,2013-04-04 20:42:00,
2013-04-04 16:47:00,41.5,37.4,30.16,SE,135,0.0,5.0,85,0.08,,,0.17,meteohub,2013-04-04 20:47:00,
2013-04-04 16:52:00,41.5,37.4,30.16,SSE,158,0.0,5.0,85,0.08,,,0.17,meteohub,2013-04-04 20:52:00,
2013-04-04 16:57:00,41.4,37.6,30.16,SSE,158,3.0,5.0,86,0.08,,,0.17,meteohub,2013-04-04 20:57:00,
2013-04-04 17:02:00,41.2,37.0,30.16,WSW,248,0.0,6.0,85,0.04,,,0.17,meteohub,2013-04-04 21:02:00,
2013-04-04 17:07:00,41.0,36.9,30.16,South,180,0.0,6.0,85,0.04,,,0.17,meteohub,2013-04-04 21:07:00,
2013-04-04 17:12:00,41.0,36.9,30.16,SSE,158,3.0,6.0,85,0.04,,,0.17,meteohub,2013-04-04 21:12:00,
2013-04-04 17:17:00,40.8,37.0,30.16,South,180,4.0,5.0,86,0.08,,,0.20,meteohub,2013-04-04 21:17:00,
2013-04-04 17:22:00,41.0,37.2,30.16,SSE,158,0.0,6.0,86,0.08,,,0.20,meteohub,2013-04-04 21:22:00,
2013-04-04 17:27:00,41.0,37.2,30.16,SW,225,0.0,6.0,86,0.04,,,0.20,meteohub,2013-04-04 21:27:00,
2013-04-04 17:32:00,40.8,37.2,30.16,SSE,158,0.0,8.0,87,0.04,,,0.20,meteohub,2013-04-04 21:32:00,
2013-04-04 17:37:00,40.6,37.0,30.16,SW,225,0.0,8.0,87,0.04,,,0.20,meteohub,2013-04-04 21:37:00,
2013-04-04 17:42:00,40.6,37.0,30.13,South,180,2.0,5.0,87,0.04,,,0.20,meteohub,2013-04-04 21:42:00,
2013-04-04 17:47:00,40.6,37.0,30.13,SSW,202,3.0,5.0,87,0.04,,,0.20,meteohub,2013-04-04 21:47:00,
2013-04-04 17:52:00,40.6,37.0,30.13,WSW,248,0.0,8.0,87,0.04,,,0.20,meteohub,2013-04-04 21:52:00,
2013-04-04 17:57:00,40.6,37.4,30.13,WSW,248,3.0,8.0,88,0.04,,,0.20,meteohub,2013-04-04 21:57:00,
2013-04-04 18:02:00,40.5,37.2,30.13,SE,135,3.0,10.0,88,0.04,,,0.20,meteohub,2013-04-04 22:02:00,
2013-04-04 18:08:00,40.5,37.2,30.13,South,180,4.0,10.0,88,0.04,,,0.20,meteohub,2013-04-04 22:08:00,
2013-04-04 18:13:00,40.3,37.2,30.13,SSW,202,6.0,10.0,89,0.00,,,0.20,meteohub,2013-04-04 22:13:00,
2013-04-04 18:18:00,40.1,37.4,30.13,WSW,248,0.0,6.0,90,0.04,,,0.25,meteohub,2013-04-04 22:18:00,
2013-04-04 18:23:00,40.1,37.4,30.13,WNW,292,3.0,7.0,90,0.04,,,0.25,meteohub,2013-04-04 22:23:00,
2013-04-04 18:28:00,40.1,37.8,30.10,SSE,158,3.0,8.0,91,0.04,,,0.25,meteohub,2013-04-04 22:28:00,
2013-04-04 18:33:00,39.9,37.6,30.10,WSW,248,4.0,8.0,91,0.04,,,0.25,meteohub,2013-04-04 22:33:00,
2013-04-04 18:38:00,39.9,37.6,30.10,WSW,248,0.0,8.0,91,0.04,,,0.25,meteohub,2013-04-04 22:38:00,
2013-04-04 18:43:00,39.9,37.8,30.10,SSW,202,0.0,8.0,92,0.08,,,0.29,meteohub,2013-04-04 22:43:00,
2013-04-04 18:48:00,39.9,37.8,30.10,SE,135,4.0,9.0,92,0.08,,,0.29,meteohub,2013-04-04 22:48:00,
2013-04-04 18:53:00,39.9,37.8,30.10,South,180,0.0,9.0,92,0.08,,,0.29,meteohub,2013-04-04 22:53:00,
2013-04-04 18:58:00,39.9,38.1,30.10,South,180,5.0,9.0,93,0.08,,,0.29,meteohub,2013-04-04 22:58:00,
2013-04-04 19:03:00,39.7,37.9,30.10,SW,225,0.0,8.0,93,0.08,,,0.29,meteohub,2013-04-04 23:03:00,
2013-04-04 19:08:00,39.7,38.1,30.10,SSE,158,0.0,8.0,94,0.08,,,0.29,meteohub,2013-04-04 23:08:00,
2013-04-04 19:13:00,39.7,38.1,30.07,SW,225,5.0,8.0,94,0.04,,,0.29,meteohub,2013-04-04 23:13:00,
2013-04-04 19:18:00,39.7,38.1,30.07,SSW,202,0.0,8.0,94,0.04,,,0.29,meteohub,2013-04-04 23:18:00,
2013-04-04 19:23:00,39.7,38.5,30.07,SSE,158,3.0,6.0,95,0.04,,,0.29,meteohub,2013-04-04 23:23:00,
2013-04-04 19:28:00,39.7,38.5,30.07,SSE,158,6.0,8.0,95,0.04,,,0.29,meteohub,2013-04-04 23:28:00,
2013-04-04 19:33:00,39.7,38.5,30.07,SSE,158,5.0,8.0,95,0.04,,,0.29,meteohub,2013-04-04 23:33:00,
2013-04-04 19:38:00,39.6,38.3,30.07,WSW,248,4.0,8.0,95,0.04,,,0.29,meteohub,2013-04-04 23:38:00,
2013-04-04 19:43:00,39.4,38.1,30.04,South,180,4.0,8.0,95,0.00,,,0.29,meteohub,2013-04-04 23:43:00,
2013-04-04 19:48:00,39.6,38.5,30.04,WSW,248,3.0,9.0,96,0.00,,,0.29,meteohub,2013-04-04 23:48:00,
2013-04-04 19:53:00,39.6,38.5,30.04,WSW,248,6.0,9.0,96,0.00,,,0.29,meteohub,2013-04-04 23:53:00,
2013-04-04 19:58:00,39.6,38.5,30.04,South,180,5.0,9.0,96,0.00,,,0.29,meteohub,2013-04-04 23:58:00,
2013-04-04 20:03:00,39.6,38.5,30.04,WSW,248,0.0,11.0,96,0.00,,,0.29,meteohub,2013-04-05 00:03:00,
2013-04-04 20:08:00,39.6,38.5,30.04,SSE,158,5.0,11.0,96,0.00,,,0.29,meteohub,2013-04-05 00:08:00,
2013-04-04 20:13:00,39.4,38.3,30.04,South,180,4.0,8.0,96,0.00,,,0.29,meteohub,2013-04-05 00:13:00,
2013-04-04 20:18:00,39.6,38.8,30.04,SSW,202,4.0,8.0,97,0.00,,,0.29,meteohub,2013-04-05 00:18:00,
2013-04-04 20:23:00,39.4,38.7,30.04,SSE,158,4.0,8.0,97,0.00,,,0.29,meteohub,2013-04-05 00:23:00,
2013-04-04 20:28:00,39.4,38.7,30.04,SSW,202,6.0,8.0,97,0.00,,,0.29,meteohub,2013-04-05 00:28:00,
2013-04-04 20:33:00,39.4,38.7,30.04,SW,225,0.0,7.0,97,0.00,,,0.29,meteohub,2013-04-05 00:33:00,
2013-04-04 20:38:00,39.4,38.7,30.04,SW,225,3.0,7.0,97,0.04,,,0.33,meteohub,2013-04-05 00:38:00,
2013-04-04 20:44:00,39.4,38.7,30.01,SW,225,5.0,6.0,97,0.04,,,0.33,meteohub,2013-04-05 00:44:00,
2013-04-04 20:49:00,39.2,38.5,30.01,South,180,3.0,8.0,97,0.04,,,0.33,meteohub,2013-04-05 00:49:00,
2013-04-04 20:54:00,39.2,38.5,30.01,South,180,9.0,9.0,97,0.04,,,0.33,meteohub,2013-04-05 00:54:00,
2013-04-04 20:59:00,39.2,38.5,30.01,WNW,292,4.0,9.0,97,0.04,,,0.33,meteohub,2013-04-05 00:59:00,
2013-04-04 21:04:00,39.2,38.5,30.01,SSW,202,3.0,9.0,97,0.04,,,0.33,meteohub,2013-04-05 01:04:00,
2013-04-04 21:09:00,39.2,38.5,30.01,ESE,112,4.0,9.0,97,0.08,,,0.37,meteohub,2013-04-05 01:09:00,
2013-04-04 21:14:00,39.2,38.5,30.01,SSE,158,4.0,8.0,97,0.08,,,0.37,meteohub,2013-04-05 01:14:00,
2013-04-04 21:19:00,39.2,38.5,30.01,SSE,158,2.0,8.0,97,0.08,,,0.37,meteohub,2013-04-05 01:19:00,
2013-04-04 21:24:00,39.0,38.5,30.01,South,180,4.0,8.0,98,0.13,,,0.41,meteohub,2013-04-05 01:24:00,
2013-04-04 21:29:00,39.2,38.7,30.01,SW,225,0.0,8.0,98,0.13,,,0.41,meteohub,2013-04-05 01:29:00,
2013-04-04 21:34:00,39.0,38.5,30.01,SE,135,3.0,8.0,98,0.08,,,0.41,meteohub,2013-04-05 01:34:00,
2013-04-04 21:39:00,39.0,38.5,30.01,SE,135,8.0,9.0,98,0.12,,,0.45,meteohub,2013-04-05 01:39:00,
2013-04-04 21:44:00,39.0,38.5,30.01,WSW,248,0.0,9.0,98,0.12,,,0.45,meteohub,2013-04-05 01:44:00,
2013-04-04 21:49:00,39.0,38.5,30.01,South,180,3.0,9.0,98,0.17,,,0.50,meteohub,2013-04-05 01:49:00,
2013-04-04 21:54:00,39.0,38.5,30.01,South,180,0.0,8.0,98,0.17,,,0.50,meteohub,2013-04-05 01:54:00,
2013-04-04 21:59:00,39.0,38.5,29.98,SSE,158,3.0,8.0,98,0.17,,,0.50,meteohub,2013-04-05 01:59:00,
2013-04-04 22:05:00,39.0,38.5,29.98,WSW,248,6.0,8.0,98,0.13,,,0.50,meteohub,2013-04-05 02:05:00,
2013-04-04 22:10:00,39.0,38.5,29.98,SW,225,0.0,10.0,98,0.17,,,0.54,meteohub,2013-04-05 02:10:00,
2013-04-04 22:15:00,39.0,38.5,29.98,SSE,158,7.0,10.0,98,0.17,,,0.54,meteohub,2013-04-05 02:15:00,
2013-04-04 22:20:00,39.2,38.7,29.98,NE,45,5.0,12.0,98,0.12,,,0.54,meteohub,2013-04-05 02:20:00,
2013-04-04 22:25:00,39.2,38.7,29.98,SE,135,4.0,12.0,98,0.17,,,0.58,meteohub,2013-04-05 02:25:00,
2013-04-04 22:30:00,39.2,38.7,29.98,SSE,158,4.0,12.0,98,0.17,,,0.58,meteohub,2013-04-05 02:30:00,
2013-04-04 22:35:00,39.2,38.7,29.98,SW,225,0.0,12.0,98,0.17,,,0.58,meteohub,2013-04-05 02:35:00,
2013-04-04 22:40:00,39.2,38.7,29.98,SSE,158,3.0,6.0,98,0.13,,,0.58,meteohub,2013-04-05 02:40:00,
2013-04-04 22:45:00,39.2,38.7,29.95,WSW,248,3.0,6.0,98,0.08,,,0.58,meteohub,2013-04-05 02:45:00,
2013-04-04 22:50:00,39.2,38.7,29.95,SSE,158,2.0,6.0,98,0.08,,,0.58,meteohub,2013-04-05 02:50:00,
2013-04-04 22:55:00,39.2,38.7,29.95,SW,225,3.0,8.0,98,0.12,,,0.62,meteohub,2013-04-05 02:55:00,
2013-04-04 23:00:00,39.2,38.7,29.95,SW,225,4.0,8.0,98,0.12,,,0.62,meteohub,2013-04-05 03:00:00,
2013-04-04 23:05:00,39.2,38.7,29.95,SSE,158,8.0,8.0,98,0.08,,,0.62,meteohub,2013-04-05 03:05:00,
2013-04-04 23:10:00,39.2,38.7,29.95,SSE,158,8.0,8.0,98,0.08,,,0.62,meteohub,2013-04-05 03:10:00,
2013-04-04 23:15:00,39.2,38.7,29.95,SSE,158,5.0,10.0,98,0.08,,,0.62,meteohub,2013-04-05 03:15:00,
2013-04-04 23:20:00,39.2,38.7,29.95,SSW,202,4.0,10.0,98,0.08,,,0.62,meteohub,2013-04-05 03:20:00,
2013-04-04 23:30:00,39.2,38.7,29.95,SSE,158,5.0,9.0,98,0.04,,,0.62,meteohub,2013-04-05 03:30:00,
2013-04-04 23:35:00,39.2,38.7,29.95,WSW,248,3.0,8.0,98,0.08,,,0.66,meteohub,2013-04-05 03:35:00,
2013-04-04 23:40:00,39.2,38.7,29.95,SSW,202,4.0,8.0,98,0.08,,,0.66,meteohub,2013-04-05 03:40:00,
2013-04-04 23:45:00,39.2,38.7,29.92,WSW,248,3.0,7.0,98,0.08,,,0.66,meteohub,2013-04-05 03:45:00,
2013-04-04 23:56:00,39.2,38.7,29.92,SSE,158,3.0,6.0,98,0.04,,,0.66,meteohub,2013-04-05 03:56:00,